sat.trackr.live / text

‹ back to catalog

ONEWEB-0516

NORAD 54134 · 2022-138X

PAYLOAD ACTIVE UNKNOWN

§ Identity

Operator
Country
UK
Launch date
2022-10-22
Launch site
SRILR
Launch vehicle
Mass (kg)
RCS (m²)

Purposes: comms

External: N2YO · Heavens-Above · Gunter

§ Orbital elements

Epoch: 2026-05-25T00:33:15.702624Z

Period
109.11 min
Inclination
87.9148°
Eccentricity
0.0001652
Mean motion
13.19726706 rev/d
Perigee alt
1,184.5 km
Apogee alt
1,187.0 km
Semi-major
7,563.9 km
B*
2.1564e-5
RAAN
309.5910°
Arg perigee
93.8026°
Mean anomaly
266.3295°
Rev number
17,377

§ Raw data

ONEWEB-05161 54134U 22138X   26145.02309841  .00000022  00000+0  21564-4 0  99932 54134  87.9148 309.5910 0001652  93.8026 266.3295 13.19726706173775

JSON: /api/v1/satellites/54134 · /tle

For live sub-satellite position, see the globe view (requires WebGL).

§ Visibility from observer

Set your observer location to see the next 7 days of passes ≥ 10°. The values pass through the URL so the page stays shareable.

No JS? Fill the form by hand. The geolocation button needs JavaScript.